Regional Weather Roundup
Issued by NWS

Home | Current Version | Previous Version | Text Only | Print | Product List | Glossary Off
Versions: 1 2 3 4 5 6 7 8 9 10 11 12 13 14 15 16 17 18 19 20 21 22 23 24 25 26 27 28 29 30 31 32 33 34 35 36 37 38 39 40 41 42 43 44 45 46 47 48 49 50

322
ASUS44 KLIX 230005
RWRLA
LOUISIANA WEATHER ROUNDUP
NATIONAL WEATHER SERVICE NEW ORLEANS LA
700 PM CDT FRI AUG 22 2014

NOTE: "FAIR" INDICATES FEW OR NO CLOUDS BELOW 12,000 FEET WITH NO
      SIGNIFICANT WEATHER AND/OR OBSTRUCTIONS TO VISIBILITY.
      SKY/WX - SKY CONDITION AND SIGNIFICANT WEATHER.
      TMP - AIR TEMPERATURE.    DP   - DEWPOINT TEMPERATURE.
      RH  - RELATIVE HUMIDITY.  PRES - PRESSURE.
      HX  - HEAT INDEX.         WCI  - WIND CHILL INDEX.

*  THESE STATIONS ARE NOT NWS OR FAA STATIONS AND ARE NOT UNDER
   NWS QUALITY CONTROL.

LAZ040-048-061>063-065-066-069-230100-
SOUTHEAST LOUISIANA

CITY           SKY/WX    TMP DP  RH WIND       PRES   REMARKS
N.O. AUDUBON     N/A     93  70  46 MISG        N/A  HX  98
6HR MIN TEMP:  92; 6HR MAX TEMP:  96;

N.O. INTL ARPT PTCLDY    89  66  46 W6        30.01S
6HR MIN TEMP:  89; 6HR MAX TEMP:  95;

N.O. LAKEFRONT CLEAR     90  72  55 NW3       30.02S HX  97
6HR MIN TEMP:  87; 6HR MAX TEMP:  91;

N.O. DOWNTOWN* FAIR      93  70  46 S6        30.02R HX  99
6HR MIN TEMP:  90; 6HR MAX TEMP:  97;

SLIDELL        CLEAR     89  74  60 SW3       30.01S HX  98
6HR MIN TEMP:  89; 6HR MAX TEMP:  96;

BATON ROUGE    CLEAR     91  73  55 NW3       30.02S HX  99
6HR MIN TEMP:  90; 6HR MAX TEMP:  95;

BOOTHVILLE     CLEAR     88  72  58 E3        30.03S
6HR MIN TEMP:  88; 6HR MAX TEMP:  92;

BELLE CHASSE   PTCLDY    90  69  50 SE6       30.01S
6HR MIN TEMP:  90; 6HR MAX TEMP:  95;

BOGALUSA*      FAIR      92  74  54 CALM      30.02F HX 101
6HR MIN TEMP:  92; 6HR MAX TEMP:  96;

GALLIANO*      NOT AVBL
NEW ROADS*     FAIR      89  77  68 CALM      30.02S HX 101
6HR MIN TEMP:  89; 6HR MAX TEMP:  92;

GONZALES*      FAIR      88  80  75 CALM      30.01S HX 104
6HR MIN TEMP:  88; 6HR MAX TEMP:  94;

HAMMOND*       CLEAR     93  70  46 S6        30.03R HX  99
HOUMA*         PTCLDY    90  72  55 NE5       30.02S HX  96
PORT FOURCHON* CLEAR     88  75  66 SE8       30.04S HX  97

$$

LAZ041-044-053-054-230100-
SOUTHWEST LOUISIANA

CITY           SKY/WX    TMP DP  RH WIND       PRES   REMARKS
LAKE CHARLES   MOCLDY    88  75  65 S7        30.01S THUNDER HX  97
6HR MIN TEMP:  88; 6HR MAX TEMP:  93;

LAFAYETTE      PTCLDY    90  77  65 CALM      30.01F HX 103
6HR MIN TEMP:  90; 6HR MAX TEMP:  94;

PATTERSON      MOCLDY    84  75  74 SW5       30.06S
6HR MIN TEMP:  82; 6HR MAX TEMP:  95;

SALT POINT       N/A     88  79  74 CALM      30.02S HX 103
6HR MIN TEMP:  88; 6HR MAX TEMP:  94; 6HR PCP:  0.01;

NEW IBERIA     PTCLDY    87  75  67 SW5       30.02F HX  96
6HR MIN TEMP:  87; 6HR MAX TEMP:  97;

CHENAULT AIRPK PTCLDY    90  72  55 SW8G17    30.02F HX  96

$$

LAZ027-028-230100-
CENTRAL LOUISIANA

CITY           SKY/WX    TMP DP  RH WIND       PRES   REMARKS
FORT POLK      CLEAR     88  72  58 S3        30.02F
6HR MIN TEMP:  88; 6HR MAX TEMP:  92;

ALEXANDRIA INT CLEAR     89  71  55 S3        29.99F HX  95
6HR MIN TEMP:  89; 6HR MAX TEMP:  94;

ALEXANDRIA     CLEAR     90  77  65 CALM      30.02S HX 103
6HR MIN TEMP:  90; 6HR MAX TEMP:  95;


$$

LAZ001-002-230100-
NORTHWEST LOUISIANA

CITY           SKY/WX    TMP DP  RH WIND       PRES   REMARKS
SHREVEPORT     CLEAR     92  70  48 SW6       29.98F HX  97
6HR MIN TEMP:  91; 6HR MAX TEMP:  96;

BARKSDALE AFB  CLEAR     92  71  49 SE8       29.99S HX  98
6HR MIN TEMP:  91; 6HR MAX TEMP:  97;

DTN SHREVEPORT CLEAR     93  68  43 VRB5      29.98F HX  97
6HR MIN TEMP:  91; 6HR MAX TEMP:  97;


$$

LAZ014-016-230100-
NORTHEAST LOUISIANA

CITY           SKY/WX    TMP DP  RH WIND       PRES   REMARKS
MONROE         CLEAR     88  72  58 SW5       30.01F
6HR MIN TEMP:  88; 6HR MAX TEMP:  94;

TALLULAH       CLEAR     88  74  63 S6        30.00F HX  96
6HR MIN TEMP:  88; 6HR MAX TEMP:  94;


$$




USA.gov is the U.S. government's official web portal to all federal, state and local government web resources and services.